This is the latest recevied weather packets stored in our database for station/object WC4PEM-8. If no packets are shown the sender has not sent any weather packets the latest 1 day(s).
| Time | Temp. | Humidity | Pressure | Rain* | Wind** | Luminosity | Snow |
|---|---|---|---|---|---|---|---|
| 1778087154 | 31.11° C | 52% | 1016.9 hPa | 0 mm | - | - | - |
| 1778086555 | 31.11° C | 52% | 1016.8 hPa | 0 mm | - | - | - |
| 1778086254 | 30.56° C | 54% | 1016.8 hPa | 0 mm | - | - | - |
| 1778085954 | 30.56° C | 54% | 1017 hPa | 0 mm | - | - | - |
| 1778085721 | 30.56° C | 54% | 1016.9 hPa | 0 mm | - | - | - |
| 1778085654 | 30.56° C | 54% | 1016.9 hPa | 0 mm | - | - | - |
| 1778085354 | 30° C | 53% | 1017 hPa | 0 mm | - | - | - |
| 1778085054 | 30.56° C | 54% | 1017.1 hPa | 0 mm | - | - | - |
| 1778084754 | 30° C | 55% | 1017 hPa | 0 mm | - | - | - |
| 1778084554 | 30° C | 56% | 1017 hPa | 0 mm | - | - | - |
| 1778084154 | 29.44° C | 56% | 1017.1 hPa | 0 mm | - | - | - |
| 1778083874 | 29.44° C | 59% | 1017 hPa | 0 mm | - | - | - |
| 1778083854 | 29.44° C | 56% | 1017.1 hPa | 0 mm | - | - | - |
| 1778083554 | 29.44° C | 57% | 1017.2 hPa | 0 mm | - | - | - |
| 1778083332 | 29.44° C | 59% | 1017 hPa | 0 mm | - | - | - |
| 1778083182 | 29.44° C | 59% | 1017.1 hPa | 0 mm | - | - | - |
| 1778082954 | 29.44° C | 59% | 1017.1 hPa | 0 mm | - | - | - |
| 1778081710 | 28.89° C | 60% | 1017.3 hPa | 0 mm | - | - | - |
| 1778081454 | 28.89° C | 60% | 1017.3 hPa | 0 mm | - | - | - |
| 1778081080 | 28.89° C | 59% | 1017.3 hPa | 0 mm | - | - | - |
| 1778080554 | 28.33° C | 60% | 1017.2 hPa | 0 mm | - | - | - |
| 1778080254 | 28.33° C | 64% | 1017.3 hPa | 0 mm | - | - | - |
| 1778079790 | 27.78° C | 67% | 1017 hPa | 0 mm | - | - | - |
| 1778079654 | 27.78° C | 67% | 1017 hPa | 0 mm | - | - | - |
| 1778079306 | 27.22° C | 69% | 1017.1 hPa | 0 mm | - | - | - |
* Rain latest hour (hover to see other rain measurements)
** Current wind speed in m/s (hover to see current wind gust speed)